EOS-6 (OCEANSAT-3)

Last updated on Sun Apr 12 2026 00:02:47 GMT+0000 (Coordinated Universal Time)

1 54361U 22158A 26101.57222890 .00000246 00000+0 79673-4 0 9999 2 54361 98.3487 200.6661 0001915 127.2057 232.9311 14.46987702178208
UTC large
Height (km)
Speed (km/s)
/
Latitude / Longitude
Inclination (degrees)
Orbital Period (minutes)
Azimuth
Elevation
Range (km)
Doppler Factor

Next 0 passes for location: London (51.5072 / 0.1276)

Sorry there are no passes over London.
EOS-6 (OCEANSAT-3)